Wind_Speed
13 13 12 12 11 9 8 6 7 6 5 5 4 3 3 3 3 4 4 5 5 5 5 6 7 7 7 7 6 7 7 8 9 10 10 11 11 12 12 13 13 14 14 14 13 13 13 13 14
14 14 14 14 12 10 8 7 7 7 6 6 5 5 5 4 5 5 6 6 6 6 7 7 8 8 8 8 7 8 9 9 10 11 12 12 13 13 13 14 14 15 15 14 14 14 14 15 15
15 15 15 15 13 10 9 8 8 8 7 6 6 6 5 5 5 6 6 7 7 7 8 9 9 9 9 8 8 9 10 10 11 12 12 13 14 14 14 15 15 16 16 16 16 16 16 15 16
16 16 16 15 13 11 10 9 9 9 8 7 7 7 7 6 7 7 8 8 8 8 9 10 10 10 10 9 9 10 11 11 12 12 13 14 15 15 15 16 16 17 18 18 18 18 18 17 17
16 16 16 15 13 13 12 11 11 10 10 8 8 8 8 7 8 8 9 9 9 10 10 11 11 11 11 11 11 12 12 12 13 14 14 15 16 16 16 17 18 18 19 19 19 19 19 19 19
16 15 15 15 14 13 13 12 11 10 10 10 9 10 10 9 9 9 10 10 11 11 12 13 13 12 13 13 13 13 13 14 15 15 16 16 16 16 17 18 19 20 20 20 20 20 20 20 20
16 15 14 14 14 14 14 14 13 12 12 11 11 11 11 10 9 9 10 11 11 12 12 13 13 13 13 14 14 14 15 15 16 16 17 18 17 18 19 20 21 21 22 22 22 22 22 22 21
16 15 14 15 15 15 15 14 14 12 12 12 12 12 12 12 11 12 12 11 12 12 13 13 13 14 14 14 14 14 15 16 17 18 18 19 19 20 20 21 22 22 22 22 23 23 23 23 23
15 15 14 15 15 15 16 15 14 14 12 13 13 13 13 13 13 13 13 13 13 14 14 14 14 14 15 15 15 15 16 16 17 19 20 20 21 21 22 22 23 23 23 23 23 24 24 24 24
14 14 14 15 15 15 15 16 15 14 14 14 14 15 15 14 14 13 14 13 14 15 15 15 15 15 16 17 17 16 17 17 19 20 21 22 22 22 23 23 23 23 23 24 24 25 25 25 25
14 14 15 15 15 15 16 16 16 16 15 14 15 16 15 14 14 15 15 14 14 15 16 16 16 18 18 18 17 18 18 19 20 21 22 23 23 23 24 24 24 24 24 24 25 25 26 26 26
14 14 15 15 15 16 16 17 17 15 14 15 15 16 16 16 15 15 15 15 16 16 17 17 18 19 19 19 19 19 20 21 21 22 23 23 23 23 24 24 24 24 24 24 25 25 26 26 26
14 15 16 16 16 16 17 17 16 15 14 15 16 17 17 16 15 15 14 14 15 16 17 18 18 18 19 19 20 20 21 22 23 23 23 23 23 23 23 24 24 24 25 25 25 25 26 27 27
15 16 17 17 17 17 17 18 18 16 17 17 17 18 17 16 16 15 15 15 16 16 16 17 17 18 19 20 20 20 21 22 22 22 23 23 23 23 23 24 25 25 25 25 26 26 26 27 28
15 16 17 18 19 18 19 19 19 19 19 18 18 17 17 16 16 15 15 16 16 16 16 17 18 19 20 20 21 21 22 22 22 22 22 22 22 23 24 24 24 25 26 26 26 27 27 28 28
15 17 18 19 19 19 20 19 20 20 20 19 18 17 17 16 15 15 15 16 16 16 17 17 19 20 20 21 21 21 21 22 21 21 22 22 23 24 24 24 25 25 25 26 27 27 28 28 28
15 16 17 18 19 19 21 20 20 20 20 19 18 17 17 16 16 16 16 16 16 16 16 17 19 20 20 19 19 20 20 21 22 22 22 23 23 23 23 24 25 26 26 26 26 27 27 27 27
14 15 16 17 19 20 20 20 20 19 19 19 19 19 18 17 17 17 17 17 17 16 17 18 19 19 19 19 19 19 20 20 21 22 22 22 23 23 23 24 25 26 26 26 26 27 26 27 27
15 16 16 17 19 20 20 20 20 20 20 20 20 20 19 18 18 18 17 17 17 17 18 19 19 19 19 19 20 21 21 21 21 21 21 22 23 24 24 25 25 26 26 26 26 26 26 26 27
14 15 16 17 19 20 20 20 20 19 19 19 19 19 18 18 19 19 19 19 18 18 19 19 20 20 20 20 20 22 22 21 21 21 22 23 23 24 25 25 25 26 26 25 26 26 26 26 26
14 15 16 17 18 19 20 19 19 18 18 18 18 19 20 20 20 19 19 19 19 19 19 19 20 20 19 19 19 20 21 21 22 22 23 23 23 24 25 26 26 26 26 25 25 25 25 25 25
14 15 16 17 18 19 19 19 18 18 17 18 18 18 19 20 19 19 19 20 20 19 19 19 20 20 19 20 20 20 21 22 22 22 23 23 24 25 25 25 25 25 25 24 24 24 24 24 24
15 16 17 17 18 18 18 19 17 17 18 18 18 18 18 19 19 20 20 20 20 19 19 20 21 20 20 19 19 20 21 21 21 22 22 23 24 24 25 25 25 25 25 24 24 24 24 24 24
16 17 18 18 19 19 18 19 18 17 17 18 19 19 19 18 19 19 19 20 20 19 19 20 21 21 21 21 20 20 20 20 21 22 23 23 24 25 25 26 25 24 24 24 24 25 25 25 25
17 19 19 20 20 19 18 19 17 17 18 19 19 19 19 19 18 19 19 20 20 19 20 21 22 21 20 20 20 21 21 21 22 22 23 24 25 25 25 25 24 24 24 24 24 25 25 25 25
18 19 20 21 21 20 19 19 18 18 18 18 17 18 18 18 18 19 19 19 19 19 20 21 22 22 22 21 20 21 22 22 23 23 23 24 24 24 24 24 24 24 24 24 24 24 25 25 25
19 18 19 20 20 20 20 19 19 19 19 18 18 18 18 18 19 19 18 19 19 19 20 20 21 21 21 22 22 22 22 23 23 23 24 24 23 23 23 24 24 24 24 24 24 24 24 24 24
20 20 19 20 20 21 20 18 19 18 18 18 18 17 18 18 19 18 18 18 18 18 20 21 20 20 21 22 22 22 23 23 23 23 22 22 22 22 23 23 24 24 24 23 23 23 24 23 23
20 20 20 21 21 21 20 17 18 18 18 18 17 17 17 17 17 17 17 17 17 18 19 19 20 20 20 21 21 22 22 23 22 21 22 22 21 22 22 23 23 22 23 22 22 22 23 23 23
20 20 19 20 20 19 20 18 17 17 17 17 16 16 16 16 16 16 16 16 17 18 19 19 19 20 20 20 20 21 21 21 21 21 21 22 22 22 22 22 22 21 21 22 22 22 22 22 23
Wind_Direction
228 226 226 229 230 229 230 242 252 257 266 273 272 292 311 322 333 327 327 331 324 313 307 303 295 295 302 305 312 315 316 319 320 319 316 315 313 311 309 307 305 303 302 300 297 295 293 293 291
229 230 230 232 233 230 231 240 253 263 270 274 280 294 309 317 312 315 310 312 316 308 305 297 290 294 299 302 307 310 310 312 315 314 313 312 310 308 307 307 305 303 301 299 297 295 294 292 289
229 231 231 233 235 233 232 240 252 259 267 274 280 286 292 300 295 306 308 309 310 301 297 296 293 296 301 303 304 304 305 306 310 309 310 311 309 307 304 305 304 302 300 297 296 295 295 293 289
230 231 232 233 235 236 236 242 247 253 262 271 274 280 287 295 298 303 306 306 306 303 295 293 296 297 298 296 298 300 302 303 307 306 307 308 306 305 303 302 302 302 301 299 296 294 294 290 288
230 231 231 232 234 236 237 245 251 255 264 270 271 276 287 297 303 302 307 303 300 299 295 292 295 294 293 293 295 298 299 300 301 302 303 305 304 301 300 300 299 300 300 297 295 294 293 290 285
230 231 231 232 234 238 239 247 260 264 263 267 277 282 285 291 299 304 304 302 298 298 299 297 296 292 291 295 296 296 297 298 300 300 301 302 302 298 299 298 298 297 297 293 292 291 291 288 284
228 229 229 233 237 240 243 250 261 267 265 271 277 282 283 287 291 302 303 301 302 301 301 301 301 299 294 295 295 294 297 299 300 300 300 301 299 297 296 296 296 295 295 292 289 289 288 287 285
226 227 227 233 238 240 246 254 262 266 271 272 278 281 285 289 293 296 297 298 299 298 298 299 300 297 294 294 293 293 295 296 298 299 300 300 298 296 294 294 293 293 291 290 288 288 288 286 285
225 226 228 233 235 241 247 254 259 263 269 272 278 282 286 289 292 295 295 294 293 293 294 292 294 293 293 293 290 290 291 293 296 298 299 298 296 294 293 291 291 291 290 289 289 288 287 285 284
224 228 231 235 237 244 250 253 257 262 269 271 278 284 286 288 291 295 293 290 287 289 290 293 294 294 292 289 289 289 289 291 294 296 295 294 293 292 290 289 290 289 288 288 289 288 286 285 284
223 227 232 235 240 247 253 256 261 264 268 274 283 287 292 289 289 292 291 287 285 286 290 293 293 294 292 288 286 288 289 291 294 295 294 292 291 289 289 289 289 288 287 287 289 288 288 286 284
225 229 234 238 245 252 256 260 264 267 270 277 284 288 290 291 291 287 288 286 286 289 291 293 293 294 293 289 287 288 289 293 293 293 292 292 291 289 289 289 288 287 286 287 287 286 286 286 284
228 229 235 241 249 254 258 261 268 271 275 279 283 283 284 284 282 283 289 290 288 288 290 291 292 293 293 291 288 288 289 291 292 292 293 292 290 289 289 289 289 287 286 287 286 287 286 285 284
234 234 240 245 252 256 258 262 266 269 274 277 280 283 282 281 281 284 286 286 286 288 290 292 292 292 291 291 288 288 289 290 291 293 293 291 291 290 290 290 290 289 287 286 285 287 286 286 284
239 240 244 250 254 258 262 262 264 266 272 276 280 280 280 281 281 283 283 284 287 289 290 290 292 293 292 291 290 290 293 292 293 293 294 293 292 292 292 291 289 289 288 287 285 285 286 286 284
243 246 249 253 259 262 264 265 265 265 270 275 279 276 276 280 279 281 284 283 285 287 289 288 288 290 292 290 287 289 293 294 295 295 294 294 294 295 294 292 291 290 290 288 286 287 287 286 285
251 255 255 257 260 263 265 267 267 268 270 275 279 282 280 280 280 281 283 283 285 286 287 288 290 291 291 291 289 292 295 296 295 294 294 295 296 296 296 294 292 291 290 291 289 289 288 287 286
257 260 260 260 261 263 266 268 268 269 272 276 279 281 279 280 281 282 284 283 286 286 287 290 294 295 291 290 292 293 295 296 298 298 297 297 298 297 296 295 294 293 291 292 292 291 290 288 287
263 264 265 265 265 267 270 272 272 272 274 276 276 275 274 279 283 283 283 285 285 285 285 291 293 294 290 291 293 293 293 293 295 296 295 295 296 297 296 297 297 296 295 294 293 292 291 290 289
269 270 269 270 271 274 277 277 277 276 277 277 276 273 273 277 281 283 282 281 284 287 288 292 294 292 288 288 289 292 292 291 290 291 293 294 295 297 298 298 299 299 298 296 295 293 292 290 289
271 274 273 275 277 278 281 281 278 275 277 278 278 276 275 278 280 281 280 279 281 284 290 292 292 292 289 287 287 288 290 288 287 289 294 297 298 299 300 300 300 299 300 299 297 293 292 291 290
269 272 274 277 279 280 279 280 277 276 276 280 280 278 277 276 275 273 277 280 281 282 286 290 290 289 288 288 291 289 288 289 288 291 293 296 298 298 297 297 298 300 302 301 299 296 295 295 294
271 273 275 277 280 278 278 280 279 277 278 281 280 279 280 277 273 272 276 278 277 280 283 287 289 287 287 290 291 289 288 291 292 294 295 298 299 299 299 299 299 300 301 300 299 296 294 295 295
278 279 278 278 282 282 282 283 281 280 281 284 283 281 283 281 275 272 275 277 279 282 284 288 290 288 286 287 289 290 290 291 293 294 296 297 298 299 300 298 298 299 300 299 298 296 294 295 296
278 281 281 281 284 285 286 288 287 285 285 286 283 283 283 281 276 276 275 277 279 283 286 289 291 289 288 288 288 291 292 291 292 293 294 296 298 299 300 299 298 299 300 300 299 297 297 298 297
277 278 280 284 286 285 284 288 289 289 288 289 286 285 283 280 278 279 278 278 279 283 288 291 291 289 292 292 293 293 293 292 292 293 295 298 299 300 301 301 299 299 300 300 299 300 300 299 298
279 280 282 285 287 287 288 288 288 290 288 287 287 284 280 277 277 279 279 280 282 285 288 292 294 292 294 295 295 295 296 295 295 296 297 299 301 303 302 303 300 299 300 300 299 300 301 301 300
278 281 282 286 291 292 293 293 293 292 291 290 288 282 278 277 277 277 278 279 281 284 288 290 293 294 295 296 297 297 297 299 300 300 300 301 303 305 305 305 304 302 302 301 300 301 302 303 302
276 276 278 283 286 290 293 297 299 297 294 294 289 284 279 278 278 278 278 279 282 284 290 291 292 295 298 300 298 299 298 300 301 301 302 303 304 307 308 308 307 307 306 305 303 303 303 303 303
275 276 276 280 283 286 290 296 298 298 296 295 290 285 283 280 281 282 282 284 286 286 290 294 295 297 300 300 299 301 301 301 302 303 305 307 307 308 309 311 310 310 309 308 305 305 305 304 303
Height
5874 5875 5877 5879 5881 5881 5882 5883 5882 5883 5883 5883 5884 5884 5884 5884 5885 5888 5885 5884 5885 5885 5885 5884 5884 5884 5883 5883 5882 5882 5882 5881 5881 5881 5880 5880 5880 5879 5879 5878 5877 5876 5876 5875 5874 5874 5874 5873 5873
5872 5874 5876 5877 5878 5880 5881 5881 5881 5881 5882 5882 5882 5882 5883 5883 5883 5884 5883 5883 5883 5884 5884 5883 5883 5882 5881 5881 5881 5880 5880 5880 5879 5879 5878 5878 5877 5877 5876 5875 5875 5874 5873 5872 5872 5871 5871 5870 5870
5870 5872 5874 5876 5877 5878 5880 5880 5880 5880 5880 5880 5880 5881 5881 5882 5882 5882 5882 5882 5882 5882 5882 5882 5881 5881 5880 5880 5879 5879 5878 5878 5877 5877 5876 5876 5875 5874 5874 5873 5872 5871 5870 5870 5869 5868 5868 5868 5867
5869 5870 5872 5874 5875 5877 5878 5878 5878 5879 5879 5879 5879 5880 5880 5881 5881 5881 5881 5881 5881 5881 5881 5880 5880 5879 5878 5878 5877 5877 5876 5876 5875 5875 5874 5873 5873 5872 5871 5870 5869 5868 5867 5867 5866 5865 5865 5865 5864
5866 5868 5870 5872 5873 5875 5876 5876 5877 5877 5878 5878 5878 5878 5879 5879 5879 5879 5879 5879 5880 5879 5879 5878 5878 5877 5877 5876 5875 5875 5874 5873 5873 5872 5872 5871 5870 5869 5868 5867 5866 5865 5864 5863 5862 5862 5861 5861 5860
5865 5867 5869 5870 5872 5873 5874 5875 5875 5876 5876 5877 5877 5876 5877 5877 5877 5877 5877 5878 5878 5878 5877 5877 5876 5875 5874 5874 5873 5872 5872 5871 5870 5870 5869 5868 5867 5866 5865 5863 5862 5861 5861 5860 5859 5858 5857 5857 5856
5863 5865 5866 5868 5869 5871 5872 5872 5873 5874 5874 5875 5875 5875 5875 5875 5875 5875 5875 5875 5875 5875 5875 5874 5873 5872 5872 5871 5870 5870 5869 5868 5868 5867 5866 5865 5864 5863 5861 5860 5859 5858 5857 5856 5855 5854 5853 5853 5852
5860 5863 5864 5866 5867 5869 5870 5870 5871 5872 5872 5873 5873 5873 5873 5873 5872 5873 5873 5872 5872 5872 5872 5871 5871 5870 5869 5868 5868 5867 5866 5866 5865 5864 5863 5862 5860 5859 5858 5856 5855 5854 5853 5852 5851 5850 5849 5848 5847
5859 5862 5863 5864 5865 5866 5867 5868 5869 5870 5870 5870 5870 5871 5871 5870 5870 5870 5870 5870 5869 5869 5869 5868 5868 5867 5866 5866 5865 5864 5863 5862 5861 5860 5859 5858 5857 5855 5854 5853 5851 5850 5849 5848 5846 5845 5844 5844 5843
5857 5859 5861 5862 5863 5864 5865 5866 5867 5867 5867 5868 5868 5868 5868 5867 5867 5867 5867 5866 5866 5866 5866 5865 5864 5864 5863 5862 5861 5860 5860 5859 5857 5857 5855 5854 5853 5851 5850 5848 5847 5845 5844 5843 5842 5841 5839 5839 5838
5855 5857 5858 5859 5861 5862 5863 5864 5864 5865 5865 5865 5865 5866 5865 5864 5864 5864 5864 5864 5863 5863 5862 5862 5861 5860 5860 5859 5858 5857 5856 5854 5853 5852 5851 5849 5848 5846 5845 5843 5842 5840 5839 5838 5837 5835 5835 5834 5833
5853 5855 5856 5858 5859 5860 5861 5861 5862 5863 5863 5862 5862 5862 5862 5861 5861 5861 5861 5861 5861 5860 5859 5858 5858 5857 5856 5855 5854 5853 5852 5850 5849 5848 5846 5844 5843 5841 5840 5838 5837 5835 5834 5833 5832 5830 5829 5828 5827
5851 5853 5854 5856 5857 5858 5859 5859 5860 5860 5860 5860 5860 5859 5859 5858 5858 5858 5858 5857 5857 5857 5856 5855 5854 5853 5852 5851 5849 5848 5847 5846 5845 5843 5841 5840 5838 5836 5835 5833 5831 5830 5828 5827 5826 5825 5823 5823 5821
5849 5851 5852 5854 5854 5855 5856 5857 5857 5857 5857 5857 5857 5856 5856 5855 5855 5855 5854 5854 5854 5853 5852 5851 5851 5849 5848 5847 5845 5844 5842 5841 5840 5838 5836 5835 5833 5832 5830 5828 5826 5824 5823 5822 5820 5819 5818 5816 5815
5847 5849 5850 5851 5852 5852 5853 5854 5854 5854 5854 5854 5854 5853 5853 5852 5852 5852 5851 5850 5850 5849 5848 5848 5847 5845 5844 5842 5840 5839 5838 5837 5835 5833 5831 5829 5828 5826 5824 5822 5821 5819 5817 5815 5814 5812 5811 5810 5808
5845 5847 5848 5848 5849 5849 5851 5851 5851 5851 5851 5851 5850 5850 5849 5849 5849 5848 5848 5847 5847 5845 5844 5843 5842 5841 5839 5837 5836 5835 5834 5832 5830 5828 5826 5824 5823 5821 5819 5817 5815 5813 5811 5809 5807 5806 5805 5803 5802
5844 5844 5845 5845 5845 5845 5846 5847 5848 5847 5847 5847 5847 5846 5846 5846 5845 5845 5844 5843 5843 5842 5840 5839 5838 5836 5834 5833 5831 5830 5829 5827 5825 5823 5822 5819 5817 5815 5813 5811 5809 5807 5805 5803 5801 5800 5798 5796 5794
5842 5842 5842 5842 5842 5842 5842 5843 5843 5843 5843 5843 5843 5843 5842 5842 5842 5841 5840 5839 5839 5837 5836 5835 5833 5831 5830 5828 5827 5825 5824 5822 5820 5818 5816 5814 5812 5809 5807 5806 5803 5801 5799 5797 5795 5793 5791 5790 5788
5840 5840 5840 5840 5839 5839 5839 5839 5839 5839 5839 5839 5839 5839 5838 5838 5837 5836 5836 5835 5834 5833 5831 5830 5828 5827 5825 5824 5822 5820 5819 5817 5816 5814 5812 5809 5807 5805 5802 5800 5798 5796 5793 5791 5789 5787 5785 5783 5781
5838 5838 5838 5837 5836 5836 5835 5835 5835 5835 5835 5835 5835 5835 5834 5834 5833 5832 5831 5831 5830 5829 5827 5825 5824 5822 5820 5819 5817 5816 5814 5812 5810 5808 5806 5804 5802 5800 5797 5795 5793 5790 5787 5785 5782 5780 5778 5776 5774
5836 5836 5835 5835 5833 5832 5832 5832 5832 5832 5831 5831 5831 5830 5830 5829 5829 5828 5827 5826 5825 5824 5823 5821 5819 5817 5815 5814 5812 5810 5809 5807 5805 5803 5801 5799 5796 5794 5792 5790 5787 5784 5781 5779 5776 5774 5772 5769 5767
5834 5833 5833 5831 5830 5829 5829 5828 5829 5828 5828 5827 5826 5826 5826 5825 5824 5823 5823 5822 5821 5820 5818 5816 5815 5813 5811 5809 5807 5805 5804 5802 5800 5799 5796 5794 5791 5788 5786 5783 5781 5778 5776 5773 5770 5768 5766 5763 5761
5831 5830 5829 5828 5827 5826 5825 5824 5825 5824 5824 5823 5823 5822 5821 5820 5820 5819 5818 5817 5816 5815 5813 5812 5810 5808 5806 5804 5802 5801 5799 5797 5795 5793 5791 5789 5786 5783 5780 5778 5775 5773 5770 5767 5764 5762 5760 5757 5755
5827 5827 5826 5824 5823 5822 5822 5821 5821 5820 5820 5819 5818 5818 5817 5816 5815 5814 5813 5812 5811 5810 5809 5807 5805 5803 5801 5799 5798 5795 5794 5792 5790 5788 5785 5783 5780 5777 5775 5772 5770 5767 5764 5762 5759 5756 5754 5751 5749
5824 5823 5822 5820 5819 5819 5818 5817 5817 5817 5816 5815 5814 5813 5812 5811 5810 5809 5809 5808 5807 5805 5804 5803 5801 5799 5797 5795 5793 5791 5788 5786 5784 5782 5780 5777 5774 5772 5769 5766 5764 5761 5759 5756 5753 5751 5748 5746 5743
5820 5819 5818 5817 5815 5815 5814 5813 5814 5812 5811 5809 5808 5807 5807 5806 5805 5804 5803 5803 5802 5801 5799 5798 5796 5794 5792 5790 5788 5786 5783 5781 5779 5776 5774 5772 5769 5766 5763 5760 5758 5756 5753 5750 5748 5745 5742 5740 5737
5815 5814 5814 5812 5811 5810 5810 5810 5809 5807 5806 5805 5804 5803 5802 5801 5800 5799 5798 5797 5796 5796 5795 5792 5791 5789 5787 5785 5783 5780 5778 5776 5773 5771 5769 5767 5764 5761 5758 5755 5752 5750 5747 5745 5742 5739 5737 5734 5731
5811 5810 5809 5808 5806 5805 5805 5804 5804 5802 5801 5800 5799 5798 5797 5796 5795 5794 5793 5793 5792 5791 5789 5787 5786 5784 5782 5780 5778 5776 5773 5770 5768 5766 5764 5761 5759 5756 5753 5750 5747 5744 5742 5739 5736 5734 5731 5729 5726
5806 5805 5804 5803 5802 5801 5799 5802 5800 5797 5796 5794 5793 5792 5792 5791 5790 5789 5789 5788 5787 5786 5784 5782 5781 5779 5777 5775 5773 5771 5768 5766 5763 5761 5759 5756 5754 5751 5748 5745 5742 5739 5737 5734 5731 5728 5726 5723 5720
5800 5800 5799 5799 5797 5796 5795 5798 5795 5793 5791 5790 5789 5788 5787 5786 5786 5785 5784 5784 5783 5781 5780 5778 5776 5774 5772 5770 5768 5766 5763 5761 5759 5757 5754 5752 5749 5746 5743 5740 5737 5734 5731 5729 5726 5723 5720 5718 5715